Location: Cinqueux
(49.3174°N, 2.5300°E)
Time: 02:50:34
(UTC+00:00)

Daily predictions for brighter satellites

Satellite Brightness Start Highest point End
(mag) Time Altitude Azimuth Time Altitude Azimuth Time Altitude Azimuth
NOSS 2-2 (D) 4.3 00:00:34 10° NW 00:05:24 78° NE 00:11:38 12° SE
Cosmos 1461 2.9 00:01:42 10° NW 00:05:48 60° SW 00:06:31 51° SSW
Cosmos 1553 Rocket 3.9 00:03:21 34° S 00:06:12 86° E 00:12:26 10° N
Gblst 52 Del rocket 4.2 00:00:02 10° WSW 00:06:19 88° NNW 00:11:58 10° ENE
Cosmos 1867 3.6 00:05:01 38° SSW 00:07:06 67° SE 00:12:33 10° NE
Cosmos 2221 Rocket 3.5 00:06:47 47° S 00:08:02 89° E 00:12:29 10° N
Cosmos 1674 Rocket 3.7 00:06:55 43° SSE 00:08:05 62° E 00:12:23 10° NNE
USA 306 4.1 00:11:52 26° ESE 00:11:52 26° ESE 00:14:52 10° ENE
Cosmos 1674 2.6 00:10:51 59° SSW 00:11:29 79° W 00:15:15 10° N
Cosmos 1238 Rocket 2.1 00:09:16 10° NNW 00:12:06 74° WNW 00:12:06 74° WNW
ATLAS CENTAUR R/B 2.7 00:09:34 10° WNW 00:13:42 28° WSW 00:13:59 28° WSW
USA 307 4.2 00:15:20 25° ESE 00:15:20 25° ESE 00:18:16 10° E
SL-19 R/B 4.3 00:17:33 44° W 00:17:33 44° W 00:20:10 10° NNW
SL-16 R/B 4.3 00:16:09 10° SE 00:18:56 14° E 00:21:43 10° ENE
Cosmos 2322 Rocket 4.1 00:17:17 10° W 00:21:50 25° NW 00:26:24 10° NNE
Cosmos 468 4.4 00:17:03 10° NNW 00:22:17 76° WSW 00:24:27 36° S
ATLAS 5 CENTAUR R/B 3.2 00:08:20 10° NW 00:22:18 70° SW 00:24:39 31° SSE
CZ-4C R/B 3.1 00:15:30 10° NW 00:22:37 61° SW 00:27:52 24° SSE
Cosmos 1980 4.3 00:20:38 30° SSE 00:22:47 44° ESE 00:28:08 10° NE
Cosmos 2333 Rocket 2.9 00:19:42 20° WSW 00:23:24 50° NW 00:28:56 10° NNE
Cosmos 1378 Rocket 3.5 00:22:19 45° S 00:23:39 85° ESE 00:28:08 10° N
Cosmos 2322 4.0 00:20:48 26° SW 00:24:01 65° WNW 00:29:45 10° NNE
USA 215 3.6 00:20:31 10° ENE 00:27:01 68° NNW 00:33:30 10° WSW
NOSS 0 Rocket 4.1 00:29:22 32° S 00:32:17 65° ESE 00:38:29 10° NE
PSLV R/B 4.0 00:29:04 10° N 00:33:20 56° WNW 00:35:01 34° SW
USA 32 4.3 00:35:15 30° SSE 00:37:44 62° E 00:42:56 10° NNE
Meteor 2-10 Rocket 4.0 00:32:06 10° N 00:37:45 62° ENE 00:41:17 22° SSE
Cosmos 2151 Rocket 4.3 00:35:40 10° NNW 00:39:46 39° W 00:40:53 33° SW
Cosmos 1745 Rocket 4.0 00:35:18 10° NNW 00:41:30 67° W 00:44:35 31° SSW
Cosmos 1975 Rocket 4.2 00:39:39 23° SE 00:41:38 35° E 00:45:43 10° NNE
Cosmos 839 Rocket 4.1 00:36:43 10° NW 00:43:03 76° SW 00:49:12 16° SSE
Okean 2 4.5 00:42:13 27° WSW 00:43:33 34° WNW 00:47:19 10° N
Okean 2 Rocket 4.2 00:40:00 10° NNW 00:44:01 32° W 00:45:14 28° WSW
ADEOS Rocket 4.0 00:42:18 22° SW 00:44:25 28° W 00:49:27 10° NNW
USA 308 3.3 00:44:46 39° SSE 00:45:13 40° SE 00:49:09 10° ENE
Cosmos 2219 Rocket 3.0 00:42:56 19° WSW 00:46:42 44° NW 00:52:03 10° NNE
Cosmos 1025 Rocket 4.3 00:47:03 21° SE 00:49:06 33° E 00:52:59 10° NNE
Meteor 2-12 Rocket 4.4 00:43:02 10° NNW 00:49:08 79° W 00:52:26 29° S
GP-B 3.1 00:51:44 10° N 00:56:12 77° E 00:58:07 33° S
Meteor 2-5 Rocket 4.5 00:55:38 21° SSE 00:59:11 46° E 01:04:35 10° NNE
CZ-2D R/B 3.1 00:54:11 10° NNE 00:59:11 38° E 01:02:28 19° SSE
Lacrosse 5 3.1 00:58:31 23° SSE 00:59:59 26° SE 01:04:11 10° ENE
Cosmos 1300 2.6 00:56:38 10° NNW 01:00:25 69° W 01:01:27 44° SSW
SL-14 R/B 3.5 01:02:27 39° SW 01:03:36 58° WNW 01:07:27 10° N
USA 267 4.0 01:02:14 27° SSW 01:04:01 30° SW 01:09:42 10° WNW
Cosmos 371 Rocket 3.4 01:06:03 31° SW 01:08:21 69° WNW 01:13:13 10° NNE
USA 305 2.8 01:07:08 38° SW 01:08:35 65° SSE 01:12:44 10° ENE
Cosmos 2150 Rocket 4.1 01:06:08 29° SW 01:08:46 68° WNW 01:13:56 10° NNE
Cosmos 1544 Rocket 4.5 01:05:28 10° N 01:09:44 45° ENE 01:13:10 15° SE
USA 229 DEB 4.2 01:02:52 10° NW 01:09:53 48° WSW 01:15:06 20° S
USA 229 4.2 01:02:58 10° NW 01:09:59 49° WSW 01:15:15 20° S
Cosmos 2237 Rocket 2.2 01:11:28 28° SSW 01:14:37 86° WNW 01:20:22 10° NNE
COSMOS 2428 3.8 01:12:17 16° WSW 01:16:27 38° NW 01:21:46 10° NNE
Cosmos 1437 Rocket 4.0 01:15:42 10° NW 01:18:44 23° W 01:19:16 23° WSW
Cosmos 405 Rocket 4.2 01:18:03 21° WSW 01:19:23 25° WNW 01:22:35 10° N
Cosmos 304 Rocket 3.7 01:17:17 30° SSW 01:19:39 84° WNW 01:24:31 10° NNE
SL-16 R/B 2.8 01:14:43 10° SSE 01:20:53 71° ENE 01:27:07 10° NNW
Okean 1 Rocket 4.3 01:18:56 10° NNW 01:22:42 28° W 01:24:05 24° WSW
Lacrosse 5 rocket 2.9 01:21:54 18° SSE 01:22:50 20° SE 01:25:47 10° E
Cosmos 1125 Rocket 4.0 01:20:01 24° SW 01:22:59 51° WNW 01:28:04 10° NNE
Cosmos 1953 3.7 01:22:16 10° NW 01:25:30 24° W 01:26:26 22° WSW
SME Rocket 3.3 01:24:35 29° S 01:26:30 61° WSW 01:31:39 10° NNW
Cosmos 2074 Rocket 4.3 01:21:41 10° N 01:27:59 70° ENE 01:33:59 11° SSE
Resurs 1-4 Rocket 2.3 01:23:15 10° NNE 01:28:32 67° ESE 01:31:56 22° S
Cosmos 2297 4.0 01:26:46 10° NNW 01:32:34 72° ENE 01:38:17 10° SE
Cosmos 1943 Rocket 2.2 01:26:53 10° NNW 01:32:36 88° ENE 01:38:17 10° SSE
Cosmos 1709 Rocket 4.5 01:30:07 10° NNW 01:35:51 43° W 01:39:17 22° SSW
MOZ.5/SAFIR/RUBIN 5/SL-8 4.3 01:33:59 27° SSW 01:36:06 42° W 01:40:37 10° NNW
Cosmos 2315 Rocket 4.4 01:35:34 22° SW 01:39:36 56° WNW 01:45:54 10° N
Cosmos 2184 Rocket 4.0 01:36:35 10° N 01:42:54 85° E 01:48:46 12° S
Cosmos 2278 Rocket 3.3 01:38:49 10° NW 01:43:23 25° WSW 01:45:23 21° SW
ADEOS II 2.7 01:39:18 10° NNE 01:44:25 50° E 01:48:40 15° S
IDEFIX/ARIANE 42P 3.5 01:40:15 10° NNE 01:45:17 43° E 01:49:52 12° SSE
USA 306 2.9 01:47:34 18° WSW 01:50:35 79° NNW 01:54:47 10° ENE
Cosmos 2084 Rocket 3.1 01:49:15 27° SW 01:51:12 79° SE 01:55:00 10° NE
Thor Agena Rocket 4.2 01:47:36 10° N 01:52:39 47° WNW 01:56:09 19° SW
USA 307 2.9 01:51:04 19° WSW 01:54:04 82° NNW 01:58:17 10° ENE
ERBS 2.3 01:54:54 24° WSW 01:56:31 65° NNW 01:59:35 10° NE
NPP 3.6 01:51:07 10° NNE 01:56:33 89° WNW 02:00:35 18° SSW
Cosmos 2369 Rocket 2.8 01:52:17 10° NNW 01:57:50 59° ENE 02:03:21 10° SE
Gblst 52 Del rocket 4.4 01:52:25 10° W 01:58:18 72° N 02:03:48 10° E
Cosmos 1455 Rocket 4.1 01:57:06 10° NNW 02:01:03 31° W 02:03:14 20° SW
CZ-4 R/B 3.9 01:56:54 10° N 02:01:32 65° WNW 02:04:41 20° SSW
Cosmos 614 Rocket 4.0 01:56:21 10° NNW 02:01:35 89° ENE 02:06:48 10° SSE
Cosmos 2228 3.9 01:57:28 10° N 02:01:45 50° ENE 02:05:57 10° SSE
SL-16 R/B 2.2 01:58:00 19° SSW 02:02:06 80° ESE 02:07:49 10° NNE
EO 1 Del DPAF 3.7 01:59:13 10° NNE 02:02:38 48° E 02:05:16 16° S
Cosmos 2251 Rocket 4.1 01:58:20 10° NNW 02:03:33 60° ENE 02:08:46 10° SE
Meteor 1-28 Rocket 3.1 02:03:36 13° SSE 02:06:57 88° W 02:10:42 10° NNW
Cosmos 1656 Rocket 4.4 02:01:53 10° NNW 02:07:14 55° ENE 02:12:33 10° SE
USA 215 4.3 02:03:22 10° ENE 02:09:33 46° N 02:15:44 10° WNW
COSMOS 2455 3.4 02:04:48 15° S 02:09:37 53° ESE 02:15:28 10° NE
CZ-4C R/B 4.5 02:05:56 10° WNW 02:10:19 16° WSW 02:12:59 14° SW
Cosmos 1536 Rocket 3.6 02:08:02 16° S 02:11:33 83° E 02:15:58 10° NNE
Cosmos 1975 Rocket 4.4 02:16:47 15° WSW 02:19:34 27° WNW 02:23:24 10° N
Nadezhda 1 Rocket 4.1 02:15:05 12° S 02:21:03 88° WNW 02:27:23 10° N
Meteor 1-24 Rocket 4.1 02:17:03 16° SW 02:21:17 49° WNW 02:26:34 10° N
MSX 4.1 02:16:40 10° NNE 02:22:26 68° ESE 02:28:11 10° S
UNK 4.2 02:19:09 15° SSW 02:22:41 42° W 02:27:05 10° NNW
USA 308 3.3 02:20:36 10° W 02:24:45 62° NNW 02:28:55 10° ENE
Cosmos 1455 2.8 02:21:31 10° NNW 02:24:56 36° W 02:27:23 16° SSW
Cosmos 1025 Rocket 4.3 02:23:55 15° WSW 02:26:44 27° WNW 02:30:26 10° N
MOS 1 Rocket 3.5 02:23:22 14° SSW 02:26:45 43° W 02:30:53 10° NNW
Cosmos 1271 Rocket 2.7 02:25:03 10° NNW 02:28:50 61° W 02:32:38 10° S
Cosmos 1606 Rocket 3.9 02:28:31 10° N 02:32:58 69° E 02:37:20 10° SSE
ALOS 4.3 02:32:42 10° NE 02:36:33 25° E 02:40:22 10° SSE
CZ-2C R/B 4.4 02:34:21 10° NE 02:38:43 27° E 02:42:58 10° SSE
CZ-2D R/B 3.0 02:34:18 10° N 02:39:13 37° WNW 02:43:47 11° SW
Lacrosse 5 2.0 02:37:42 12° WSW 02:42:32 81° NNW 02:47:39 10° NE
Helios 1B rocket 3.6 02:39:43 10° NNE 02:43:34 40° E 02:47:23 10° S
Cosmos 2341 Rocket 4.1 02:39:16 10° N 02:45:43 87° E 02:52:07 10° S
USA 305 3.7 02:44:14 10° W 02:48:18 49° NNW 02:52:23 10° ENE
Cosmos 2154 Rocket 4.4 02:43:02 10° NNW 02:49:02 46° W 02:54:59 10° SSW
Meteor 2-1 Rocket 4.3 02:44:28 10° NNW 02:50:18 86° W 02:55:57 10° S
BREEZE-M DEB (TANK) 4.0 02:47:13 11° SSW 02:50:56 23° SSE 02:53:06 10° E
Cosmos 407 Rocket 3.6 02:46:10 10° NNW 02:51:32 84° ENE 02:56:48 10° SSE
SL-8 Rocket 4.2 02:46:05 10° N 02:52:27 83° E 02:58:47 10° S
Cosmos 1943 3.6 02:51:33 10° SSW 02:57:09 62° ESE 03:02:46 10° NE
Cosmos 1328 4.0 02:53:16 10° S 02:57:12 75° E 03:01:12 10° NNE
Helios 1A 3.9 02:53:45 10° SSW 02:57:27 30° W 03:01:13 10° NNW
Genesis I 3.3 02:55:00 10° NW 02:59:06 90° WSW 03:03:06 10° SE
Cosmos 2237 Rocket 4.0 02:55:15 10° W 02:59:32 21° NW 03:03:52 10° N
Lacrosse 5 rocket 1.3 02:57:30 10° WSW 03:01:25 79° NNW 03:05:35 10° NE
Cosmos 1140 Rocket 3.5 02:57:12 10° NNW 03:02:29 77° WSW 03:07:42 10° SSE
SL-16 R/B 3.7 03:00:12 10° SW 03:05:03 24° W 03:09:57 10° NW
Resurs 1-4 Rocket 3.6 03:03:53 10° N 03:07:53 22° WNW 03:11:53 10° WSW
SeaSat 1 4.4 03:04:38 10° NE 03:08:39 24° ESE 03:12:39 10° SSE
Lacrosse 4 Rocket 4.0 03:06:53 10° SE 03:09:31 16° ESE 03:12:06 10° ENE
Cosmos 1892 Rocket 3.7 03:06:33 10° S 03:11:00 83° E 03:15:30 10° NNE
Cosmos 1726 Rocket 3.6 03:08:09 10° NNW 03:12:33 62° W 03:16:52 10° S
Cosmos 1703 4.3 03:11:36 10° SW 03:15:09 32° WNW 03:18:43 10° N
Cosmos 1943 Rocket 3.7 03:12:04 10° WNW 03:15:34 17° W 03:19:04 10° SW
FENGYUN 3A 4.0 03:11:17 10° NNE 03:16:41 67° ESE 03:22:02 10° S
Cosmos 2263 4.4 03:11:18 10° NW 03:16:49 53° WSW 03:22:20 10° S
